Hourly Data Report for August 16, 2013

All times are specified in Local Standard Time (LST). Add 1 hour to adjust for Daylight Saving Time where and when it is observed.

VICTORIA INTL A
BRITISH COLUMBIA

48°38'50.000" N
123°25'33.000" W
19.50 m
1018621
71799
YYJ

Download Data

Hourly Data (August 2013)
Hourly Data Report for August 16, 2013
Temp Definition
°C
Dew Point Temp Definition
°C
Rel Hum Definition
%
Wind Dir Definition
10's deg

Wind Spd Definition
km/h
Visibility Definition
km
Stn Press Definition
kPa
Hmdx Definition


Wind Chill Definition


Weather Definition


TIME
00:00 Legend Double Dagger 11.6 11.3 98 10 7 48.3 101.32     LegendNANA
01:00 Legend Double Dagger 11.4 11.1 98 8 5 48.3 101.33     Clear
02:00 Legend Double Dagger 11.3 11.0 98 16 4 48.3 101.33     LegendNANA
03:00 Legend Double Dagger 11.7 11.6 99 9 3 0.0 101.31     Fog
04:00 Legend Double Dagger 11.9 11.9 100 13 4 0.0 101.32     Fog
05:00 Legend Double Dagger 11.4 11.4 100 9 3 1.0 101.32     Fog
06:00 Legend Double Dagger 11.2 11.2 100 12 8 1.0 101.34     Fog
07:00 Legend Double Dagger 11.8 11.8 100 11 13 0.4 101.36     Fog
08:00 Legend Double Dagger 14.0 14.0 100 11 10 1.2 101.39     Fog
09:00 Legend Double Dagger 15.9 14.8 93 14 10 6.4 101.41     Fog
10:00 Legend Double Dagger 16.6 15.3 92 12 16 9.7 101.42     Fog
11:00 Legend Double Dagger 17.6 15.8 89 12 15 24.1 101.42     LegendNANA
12:00 Legend Double Dagger 18.5 15.4 82 12 15 48.3 101.39     LegendNANA
13:00 Legend Double Dagger 19.5 15.4 77 10 12 48.3 101.36     Mostly Cloudy
14:00 Legend Double Dagger 21.1 15.9 72 12 14 48.3 101.32 26   LegendNANA
15:00 Legend Double Dagger 21.8 14.6 63 11 13 48.3 101.31 26   LegendNANA
16:00 Legend Double Dagger 21.0 14.3 65 10 10 48.3 101.28 25   Mostly Cloudy
17:00 Legend Double Dagger 20.1 15.2 73 7 8 48.3 101.26     LegendNANA
18:00 Legend Double Dagger 20.5 15.1 71 8 6 48.3 101.25 25   LegendNANA
19:00 Legend Double Dagger 19.6 14.9 74 20 3 48.3 101.26     Mostly Cloudy
20:00 Legend Double Dagger 19.7 15.0 74 29 1 48.3 101.28     LegendNANA
21:00 Legend Double Dagger 18.3 14.3 77 5 4 48.3 101.32     LegendNANA
22:00 Legend Double Dagger 17.1 14.0 82 10 5 48.3 101.33     Mostly Cloudy
23:00 Legend Double Dagger 15.5 12.7 83 11 4 48.3 101.31     LegendNANA

Notes on Data Quality.

Legend

  • E = Estimated
  • M = Missing
  • NA = Not Available
  • ‡ = Partner data that is not subject to review by the National Climate Archives
Date modified: